TimeEDT,TemperatureF,Dew PointF,Humidity,Sea Level PressureIn,VisibilityMPH,Wind Direction,Wind SpeedMPH,Gust SpeedMPH,PrecipitationIn,Events,Conditions,WindDirDegrees,DateUTC
12:51 AM,82.9,70.0,65,30.06,10.0,WSW,10.4,-,N/A,,Clear,240,2013-07-18 04:51:00
1:51 AM,82.0,71.1,69,30.06,10.0,WSW,8.1,-,N/A,,Clear,240,2013-07-18 05:51:00
2:51 AM,81.0,71.1,72,30.04,9.0,SW,8.1,-,N/A,,Clear,220,2013-07-18 06:51:00
3:51 AM,81.0,71.1,72,30.03,9.0,SW,6.9,-,N/A,,Clear,230,2013-07-18 07:51:00
4:51 AM,80.1,71.1,74,30.03,9.0,SW,6.9,-,N/A,,Partly Cloudy,230,2013-07-18 08:51:00
5:51 AM,80.1,71.1,74,30.03,9.0,SW,5.8,-,N/A,,Scattered Clouds,230,2013-07-18 09:51:00
6:51 AM,82.0,71.1,69,30.04,9.0,West,5.8,-,N/A,,Scattered Clouds,260,2013-07-18 10:51:00
7:51 AM,84.9,72.0,65,30.05,9.0,WNW,5.8,-,N/A,,Scattered Clouds,300,2013-07-18 11:51:00
8:51 AM,89.1,73.0,59,30.05,9.0,NW,4.6,-,N/A,,Scattered Clouds,310,2013-07-18 12:51:00
9:51 AM,91.0,72.0,53,30.05,9.0,Variable,3.5,-,N/A,,Scattered Clouds,0,2013-07-18 13:51:00
10:51 AM,93.9,73.0,51,30.04,10.0,NW,8.1,16.1,N/A,,Scattered Clouds,320,2013-07-18 14:51:00
11:51 AM,96.1,71.1,44,30.04,10.0,NW,9.2,-,N/A,,Scattered Clouds,320,2013-07-18 15:51:00
12:51 PM,98.1,69.1,39,30.03,10.0,WNW,9.2,17.3,N/A,,Scattered Clouds,300,2013-07-18 16:51:00
1:51 PM,98.1,66.9,36,30.01,10.0,WNW,11.5,19.6,N/A,,Scattered Clouds,300,2013-07-18 17:51:00
2:51 PM,98.1,66.9,36,29.99,10.0,Variable,5.8,-,N/A,,Scattered Clouds,0,2013-07-18 18:51:00
3:51 PM,100.0,66.0,33,29.98,10.0,WNW,9.2,-,N/A,,Scattered Clouds,300,2013-07-18 19:51:00
4:51 PM,98.1,66.9,36,29.96,10.0,NW,6.9,-,N/A,,Mostly Cloudy,310,2013-07-18 20:51:00
5:51 PM,98.1,68.0,37,29.95,10.0,Variable,4.6,-,N/A,,Scattered Clouds,0,2013-07-18 21:51:00
6:51 PM,97.0,66.9,37,29.96,10.0,West,11.5,-,N/A,,Scattered Clouds,280,2013-07-18 22:51:00
7:51 PM,95.0,69.1,43,29.97,10.0,West,6.9,-,N/A,,Mostly Cloudy,270,2013-07-18 23:51:00
8:51 PM,93.9,70.0,46,29.97,10.0,West,8.1,-,N/A,,Mostly Cloudy,260,2013-07-19 00:51:00
9:51 PM,91.9,71.1,50,29.97,10.0,SW,5.8,-,N/A,,Mostly Cloudy,220,2013-07-19 01:51:00
10:51 PM,89.1,72.0,57,29.96,10.0,SSW,8.1,-,N/A,,Scattered Clouds,210,2013-07-19 02:51:00
11:51 PM,86.0,73.9,67,29.96,10.0,SSW,8.1,-,N/A,,Scattered Clouds,200,2013-07-19 03:51:00